Time,TemperatureF,DewpointF,PressureIn,WindDirection,WindDirectionDegrees,WindSpeedMPH,WindSpeedGustMPH,Humidity,HourlyPrecipIn,Conditions,Clouds,dailyrainin,SoftwareType,DateUTC
2013-03-13 00:00:00,34.0,13.0,-100.00,WSW,247,16.0,25.0,42,-99.99,,,-99.99,,2013-03-13 07:00:00,
2013-03-13 01:00:00,33.0,11.0,-100.00,West,269,18.0,28.0,39,-99.99,,,-99.99,,2013-03-13 08:00:00,
2013-03-13 02:00:00,33.0,14.0,-100.00,WSW,251,20.0,27.0,45,-99.99,,,-99.99,,2013-03-13 09:00:00,
2013-03-13 03:00:00,33.0,8.0,-100.00,West,259,21.0,30.0,35,-99.99,,,-99.99,,2013-03-13 10:00:00,
2013-03-13 04:00:00,37.0,16.0,-100.00,West,266,20.0,29.0,42,-99.99,,,-99.99,,2013-03-13 11:00:00,
2013-03-13 05:00:00,36.0,27.0,-100.00,West,272,18.0,25.0,69,-99.99,,,-99.99,,2013-03-13 12:00:00,
2013-03-13 06:00:00,39.0,29.0,-100.00,West,264,13.0,23.0,67,-99.99,,,-99.99,,2013-03-13 13:00:00,
2013-03-13 07:00:00,38.0,28.0,-100.00,WNW,298,6.0,15.0,67,-99.99,,,-99.99,,2013-03-13 14:00:00,
2013-03-13 08:00:00,36.0,28.0,-100.00,NNE,27,3.0,13.0,73,-99.99,,,-99.99,,2013-03-13 15:00:00,
2013-03-13 09:00:00,38.0,29.0,-100.00,WSW,239,1.0,5.0,69,-99.99,,,-99.99,,2013-03-13 16:00:00,
2013-03-13 10:00:00,38.0,29.0,-100.00,NNE,25,1.0,5.0,69,-99.99,,,-99.99,,2013-03-13 17:00:00,
2013-03-13 11:00:00,40.0,29.0,-100.00,North,0,0.0,3.0,64,-99.99,,,-99.99,,2013-03-13 18:00:00,
2013-03-13 12:00:00,40.0,28.0,-100.00,West,259,3.0,13.0,62,-99.99,,,-99.99,,2013-03-13 19:00:00,
2013-03-13 13:00:00,41.0,29.0,-100.00,West,276,7.0,12.0,63,-99.99,,,-99.99,,2013-03-13 20:00:00,
2013-03-13 14:00:00,42.0,30.0,-100.00,SSW,199,3.0,10.0,62,-99.99,,,-99.99,,2013-03-13 21:00:00,
2013-03-13 16:00:00,42.0,29.0,-100.00,WSW,252,5.0,15.0,60,-99.99,,,-99.99,,2013-03-13 23:00:00,
2013-03-13 17:00:00,41.0,31.0,-100.00,WSW,258,8.0,14.0,66,-99.99,,,-99.99,,2013-03-14 00:00:00,
2013-03-13 18:00:00,39.0,31.0,-100.00,West,260,9.0,15.0,73,-99.99,,,-99.99,,2013-03-14 01:00:00,
2013-03-13 19:00:00,38.0,31.0,-100.00,SW,217,7.0,14.0,75,-99.99,,,-99.99,,2013-03-14 02:00:00,
2013-03-13 21:00:00,39.0,31.0,-100.00,WSW,240,7.0,14.0,74,-99.99,,,-99.99,,2013-03-14 04:00:00,
2013-03-13 22:00:00,40.0,28.0,-100.00,SSW,200,7.0,14.0,62,-99.99,,,-99.99,,2013-03-14 05:00:00,
2013-03-13 23:00:00,41.0,28.0,-100.00,SW,216,8.0,17.0,60,-99.99,,,-99.99,,2013-03-14 06:00:00,